Regional Weather Roundup
Issued by NWS Cleveland, OH

Current Version | Previous Version | Text Only | Print | Product List | Glossary On
Versions: 1 2 3 4 5 6 7 8 9 10 11 12 13 14 15 16 17 18 19 20 21 22 23 24 25 26 27 28 29 30 31 32 33 34 35 36 37 38 39 40 41 42 43 44 45 46 47 48 49 50
000 ASUS41 KCLE 240212 RWRCLE OHIO REGIONAL WEATHER ROUNDUP NATIONAL WEATHER SERVICE WILMINGTON, OH 900 PM EST THU FEB 23 2017 NOTE: "FAIR" INDICATES FEW OR NO CLOUDS BELOW 12,000 FEET WITH NO SIGNIFICANT WEATHER AND/OR OBSTRUCTIONS TO VISIBILITY. OHZ001>008-015>018-024>027-034-035-043-044-240300- NORTHWEST OHIO CITY SKY/WX TMP DP RH WIND PRES REMARKS DEFIANCE FAIR 56 44 64 E7 29.74F FINDLAY MOCLDY 59 52 77 SE7 29.76S TOLEDO EXPRESS MOCLDY 57 45 64 E5 29.77R TOLEDO EXEC MOCLDY 56 48 74 NE13 29.80R LIMA CLOUDY 57 54 89 E5 29.76S $$ OHZ009>014-019>023-028>033-038-089-240300- NORTHEAST OHIO CITY SKY/WX TMP DP RH WIND PRES REMARKS CLE-HOPKINS MOCLDY 56 49 77 NE7 29.83R CLE-LAKEFRONT CLOUDY 47 44 90 NE12 29.81R FOG CUY CO. ARPT PTCLDY 54 52 94 VRB6 29.81S LORAIN-ELYRIA MOCLDY 53 47 79 E5 29.80R ASHTABULA MOCLDY 51 50 96 SE3 29.83S AKRON-CANTON MOCLDY 56 50 80 CALM 29.82R WOOSTER FAIR 55 52 89 E3 29.80S MANSFIELD RAIN 58 55 90 NE3 29.80R FOG YOUNGSTOWN CLOUDY 57 51 80 NE7 29.83R $$ OHZ042-051>053-060>062-070>072-077>081-240300- SOUTHWEST OHIO CITY SKY/WX TMP DP RH WIND PRES REMARKS CINC-COVINGTON CLOUDY 64 57 78 S10 29.76F CINC-LUNKEN CLOUDY 65 58 78 S7 29.76F HAMILTON FAIR 64 56 75 SE3 29.76F DAYTON CLOUDY 61 53 75 S7 29.76F WRIGHT-PAT AFB PTCLDY 62 56 80 SE6 29.76S DAYTON GENERAL FAIR 61 54 77 S7 29.75F WILMINGTON CLOUDY 61 56 83 S9 29.77F $$ OHZ036-037-039>041-045>050-054>059-063>069-073>076-082>088-240300- CENTRAL AND SOUTHEAST OHIO CITY SKY/WX TMP DP RH WIND PRES REMARKS COLUMBUS CLOUDY 60 58 92 E5 29.79S OSU AIRPORT CLOUDY 60 57 89 SE5 29.78S BOLTON FIELD CLOUDY 57 57 98 S3 29.79S RICKENBACK AFB CLOUDY 60 54 82 S5 29.79R NEWARK CLOUDY 59 55 87 W3 29.79S MARION CLOUDY 60 55 83 SE3 29.79S LANCASTER CLOUDY 63 54 72 S3 29.80S ZANESVILLE MOCLDY 58 56 93 SE6 29.81S NEW PHILLY RAIN 58 57 97 SE5 29.83R $$

USA.gov is the U.S. government's official web portal to all federal, state and local government web resources and services.